Simultaneous Nadir Overpasses (SNOs) Predictions

Prediction of SNOs between AQUA and METOP-B Satellite Orbit:

Table of predicted SNOs for the next 14.0 days since TLE Epoch: 6/29/2019
Index Date (AQUA) Time (AQUA) Lat,Lon (AQUA) SZA (AQUA ) Date (METOP-B) Time (METOP-B) Lat,Lon (METOP-B) SZA (METOP-B ) Distance(km) Time Diff (sec)
1 07/01/2019 05:43:40 -73.76, -91.52 129.33 07/01/2019 05:42:27 -73.70, -91.85 129.37 12.65 73
2 07/01/2019 06:33:09 73.87, 75.88 50.80 07/01/2019 06:33:03 73.88, 75.93 50.81 1.83 6
3 07/01/2019 07:22:36 -73.92,-116.58 129.16 07/01/2019 07:23:44 -73.92,-116.65 129.16 2.40 68
4 07/04/2019 01:17:55 -73.83, -25.23 129.04 07/04/2019 01:16:46 -73.82, -25.14 129.04 3.07 69
5 07/04/2019 02:07:22 73.85, 142.38 50.98 07/04/2019 02:07:25 73.86, 142.28 51.00 3.46 3
6 07/04/2019 02:56:51 -73.99, -50.29 128.87 07/04/2019 02:58:04 -74.00, -50.05 128.87 7.54 73
7 07/06/2019 20:52:09 -73.80, 41.27 128.80 07/06/2019 20:51:09 -73.80, 41.21 128.79 2.00 60
8 07/06/2019 21:41:37 73.87,-151.25 51.28 07/06/2019 21:41:47 73.88,-151.25 51.29 1.23 10
9 07/06/2019 22:31:11 -74.27, 15.50 128.29 07/06/2019 22:32:21 -74.27, 17.03 128.36 46.11 70
10 07/09/2019 16:26:24 -73.83, 107.65 128.45 07/09/2019 16:25:31 -73.82, 107.67 128.45 1.38 53
11 07/09/2019 17:15:52 73.91, -84.88 51.64 07/09/2019 17:16:09 73.91, -84.79 51.64 2.72 17
12 07/09/2019 18:05:32 -74.60, 81.13 127.60 07/09/2019 18:06:37 -74.58, 84.26 127.75 92.28 65
13 07/12/2019 12:00:37 -73.81, 174.13 128.10 07/12/2019 11:59:52 -73.84, 174.13 128.06 3.44 45
14 07/12/2019 12:50:05 73.89, -18.40 51.99 07/12/2019 12:50:31 73.88, -18.45 51.98 1.77 26




NCC Satellite Simultaneous Nadir Overpasses (SNOs) Prediction Service
